# Total inorganic carbon (TCO2) in a unit kg  of seawater measured onboard R/V Kaiyo (NODC Code: unknown) of the Japan Marine Science and Technology Center (JAMSTEC).,,,,,,,,,,,,,,,,,
# Cruise = KY93-07,,,,,,,,,,,,,,,,,
"# Measured by Meteorological Research Institute using coulometric technique (Ishii, et al., 1998). ",,,,,,,,,,,,,,,,,
"# Batches of Certified Reference Material for TCO2 analysis provided by Dr A. G. Dickson have been used for quality control. Significant offset, if any, has been corrected for.",,,,,,,,,,,,,,,,,
"# Total alkalinity (TA) has been calculated from TCO2, SST, salinity and pCO2 that have been concurrently measured using carbonic acid dissociation constants given by Roy et al., 1993.",,,,,,,,,,,,,,,,,
# Date and Time = UTC,,,,,,,,,,,,,,,,,
"# Quality flag (F); good=2, questionable=3, bad =4, not reported = 5, no data =9",,,,,,,,,,,,,,,,,
#,,,,,,,,,,,,,,,,,
Ship,Cruise,No.,Date,,,Time,,Latitude,Longitude,TCO2,F,TA_calcd,F,SST,F,SSS,F
,,,year,month,day,hour,min,deg,deg,umol/kg,,umol/kg,,degC,,,
Kaiyo,9307,1,1994,1,7,15,0,5,177.64,1947.1,2,2307.5,2,28.79,2,34.84,2
Kaiyo,9307,2,1994,1,7,16,0,5.01,177.82,1942.4,2,2307.3,2,28.86,2,34.88,2
Kaiyo,9307,3,1994,1,7,17,0,5.02,178,1942.2,2,2358.4,2,28.86,2,34.86,2
Kaiyo,9307,4,1994,1,7,18,0,5.02,178.17,1939.8,2,2355.5,2,28.86,2,34.86,2
Kaiyo,9307,5,1994,1,7,19,0,5.01,178.34,1935.2,2,2304.6,2,28.86,2,34.84,2
Kaiyo,9307,6,1994,1,7,20,0,5.01,178.5,1933.8,2,2302.4,2,28.85,2,34.8,2
Kaiyo,9307,7,1994,1,7,21,0,5.01,178.66,1928.3,2,2296.1,2,28.91,2,34.77,2
Kaiyo,9307,8,1994,1,8,6,0,5,179.92,1923.7,2,2290.4,2,28.96,2,34.65,2
Kaiyo,9307,9,1994,1,8,7,0,5,180.09,1934,2,2302.4,2,29,2,34.7,2
Kaiyo,9307,10,1994,1,8,8,0,5,180.27,1937.3,2,2304.7,2,28.81,2,34.71,2
Kaiyo,9307,11,1994,1,8,9,0,5.01,180.47,1939.2,2,2304,2,28.82,2,34.74,2
Kaiyo,9307,12,1994,1,8,10,0,5,180.67,1939.9,2,2304.3,2,28.87,2,34.8,2
Kaiyo,9307,13,1994,1,8,11,0,5,180.87,1939,2,2304.3,2,28.76,2,34.84,2
Kaiyo,9307,14,1994,1,8,12,0,5,181.07,1944.5,2,2308,2,28.8,2,34.83,2
Kaiyo,9307,15,1994,1,8,13,0,5.01,181.28,1940.9,2,2307.3,2,28.88,2,34.89,2
Kaiyo,9307,16,1994,1,8,14,0,5.01,181.48,1942.9,2,2310.1,2,28.83,2,34.89,2
Kaiyo,9307,17,1994,1,8,15,0,5,181.68,1936.4,2,2302.4,2,28.83,2,34.88,2
Kaiyo,9307,18,1994,1,8,16,0,5,181.88,1926.4,2,2293.2,2,28.64,2,34.75,2
Kaiyo,9307,19,1994,1,8,17,0,4.99,182.08,1929,2,2297.7,2,28.75,2,34.72,2
Kaiyo,9307,20,1994,1,8,18,0,4.99,182.28,1936.3,2,2302,2,28.78,2,34.74,2
Kaiyo,9307,21,1994,1,8,19,0,5,182.49,1941.2,2,2305.4,2,28.93,2,34.78,2
Kaiyo,9307,22,1994,1,8,20,0,5,182.69,1938,2,2302.2,2,29,2,34.77,2
Kaiyo,9307,23,1994,1,8,21,0,5,182.9,1936.9,2,2303.5,2,29.01,2,34.77,2
Kaiyo,9307,24,1994,1,9,5,0,5,184.07,1927.7,2,2295.7,2,29.02,2,34.7,2
Kaiyo,9307,25,1994,1,9,7,0,5,184.48,1929.4,2,2296.3,2,28.98,2,34.7,2
Kaiyo,9307,26,1994,1,9,8,0,5,184.68,1928.6,2,2294.4,2,28.93,2,34.69,2
Kaiyo,9307,27,1994,1,9,9,0,5,184.89,1929.7,2,2298.2,2,28.97,2,34.7,2
Kaiyo,9307,28,1994,1,9,10,0,5,185.09,1933.3,2,2300.5,2,28.95,2,34.71,2
Kaiyo,9307,29,1994,1,9,11,0,5.01,185.3,1928.6,2,2296.8,2,28.9,2,34.73,2
Kaiyo,9307,30,1994,1,9,12,0,5.01,185.5,1922.3,2,2291.5,2,28.78,2,34.69,2
Kaiyo,9307,31,1994,1,9,13,0,5,185.71,1917.6,2,2285.2,2,28.72,2,34.63,2
Kaiyo,9307,32,1994,1,9,14,0,5,185.92,1918.6,2,2286.1,2,28.8,2,34.57,2
Kaiyo,9307,33,1994,1,9,15,0,4.99,186.12,1918.1,2,2286.2,2,28.83,2,34.54,2
Kaiyo,9307,34,1994,1,9,16,0,5,186.32,1918.3,2,2285.7,2,28.75,2,34.52,2
Kaiyo,9307,35,1994,1,9,17,0,5,186.52,1920.8,2,2287.8,2,28.75,2,34.52,2
Kaiyo,9307,36,1994,1,9,18,0,5,186.73,1917.1,2,2283.7,2,28.65,2,34.53,2
Kaiyo,9307,37,1994,1,9,19,0,5,186.93,1917.3,2,2283.5,2,28.68,2,34.49,2
Kaiyo,9307,38,1994,1,9,20,0,5,187.13,1923.8,2,2292.2,2,28.63,2,34.51,2
Kaiyo,9307,39,1994,1,10,1,0,5.01,187.67,1919.5,2,2286,2,28.86,2,34.52,2
Kaiyo,9307,40,1994,1,10,4,0,5,188.18,1935.5,2,2295.8,2,28.8,2,34.59,2
Kaiyo,9307,41,1994,1,10,5,0,5.01,188.35,1949.8,2,2303.3,2,28.62,2,34.68,2
Kaiyo,9307,42,1994,1,10,6,0,5.01,188.53,1956.9,2,2303.8,2,28.33,2,34.78,2
Kaiyo,9307,43,1994,1,10,7,0,5.01,188.71,1946.5,2,2294.2,2,28.2,2,34.79,2
Kaiyo,9307,44,1994,1,10,8,0,5.01,188.88,1956,2,2304.9,2,28.19,2,34.75,2
Kaiyo,9307,45,1994,1,10,9,0,5.01,189.05,1955.9,2,2304.3,2,28.18,2,34.78,2
Kaiyo,9307,46,1994,1,10,10,0,5,189.25,1960.5,2,2309.6,2,28.25,2,34.82,2
Kaiyo,9307,47,1994,1,10,11,0,5,189.45,1957.8,2,2307.1,2,28.25,2,34.85,2
Kaiyo,9307,48,1994,1,10,12,0,5.01,189.66,1955.3,2,2303.7,2,28.27,2,34.86,2
Kaiyo,9307,49,1994,1,10,13,0,5.01,189.86,1957.5,2,2308.6,2,28.3,2,34.86,2
Kaiyo,9307,50,1994,1,10,14,0,5.01,190.07,1954.9,2,2305.6,2,28.32,2,34.86,2
Kaiyo,9307,51,1994,1,10,15,0,5,190.28,1947.9,2,2301.9,2,28.38,2,34.84,2
Kaiyo,9307,52,1994,1,10,16,0,5,190.5,1946.2,2,2301.6,2,28.35,2,34.81,2
Kaiyo,9307,53,1994,1,10,17,0,5,190.71,1953.3,2,2306.7,2,28.31,2,34.79,2
Kaiyo,9307,54,1994,1,10,18,0,5.01,190.92,1946.9,2,2301.4,2,28.33,2,34.81,2
Kaiyo,9307,55,1994,1,10,19,0,5.01,191,1936.3,2,2298.3,2,28.55,2,34.77,2
Kaiyo,9307,56,1994,1,10,23,0,4.95,191.25,1929.5,2,2292.2,2,28.76,2,34.68,2
Kaiyo,9307,57,1994,1,11,0,0,4.9,191.41,1925.5,2,2290,2,28.88,2,34.66,2
Kaiyo,9307,58,1994,1,11,1,0,4.86,191.57,1925.1,2,2290.6,2,28.94,2,34.63,2
Kaiyo,9307,59,1994,1,11,2,0,4.82,191.73,1930,2,2292.6,2,28.86,2,34.63,2
Kaiyo,9307,60,1994,1,11,5,0,4.72,192.16,1950.4,2,2305.6,2,28.62,2,34.76,2
Kaiyo,9307,61,1994,1,11,6,0,4.66,192.36,1941.5,2,2298.6,2,28.55,2,34.78,2
Kaiyo,9307,62,1994,1,11,7,0,4.6,192.56,1939.2,2,2298.7,2,28.44,2,34.78,2
Kaiyo,9307,63,1994,1,11,8,0,4.55,192.77,1948.4,2,2304.7,2,28.24,2,34.78,2
Kaiyo,9307,64,1994,1,11,9,0,4.51,192.97,1983,2,2318.8,2,27.7,2,34.87,2
Kaiyo,9307,65,1994,1,11,10,0,4.46,193.18,1980.2,2,2314,2,27.65,2,34.94,2
Kaiyo,9307,66,1994,1,11,11,0,4.41,193.38,1975,2,2311.9,2,27.73,2,34.97,2
Kaiyo,9307,67,1994,1,11,12,0,4.35,193.58,1975.2,2,2313.3,2,27.76,2,34.98,2
Kaiyo,9307,68,1994,1,11,13,0,4.31,193.76,1976.2,2,2315.2,2,27.78,2,34.98,2
Kaiyo,9307,69,1994,1,11,14,0,4.27,193.93,1976.5,2,2314.9,2,27.77,2,34.98,2
Kaiyo,9307,70,1994,1,11,15,0,4.23,194.09,1976.2,2,2315,2,27.76,2,34.98,2
Kaiyo,9307,71,1994,1,11,16,0,4.19,194.25,1975.6,2,2315.5,2,27.8,2,34.98,2
Kaiyo,9307,72,1994,1,11,17,0,4.15,194.4,1941.4,2,2295.4,2,28.13,2,34.92,2
Kaiyo,9307,73,1994,1,11,18,0,4.11,194.55,1938.6,2,2295.4,2,28.13,2,34.81,2
Kaiyo,9307,74,1994,1,11,19,0,4.07,194.69,1934.6,2,2289.3,2,28.14,2,34.71,2
Kaiyo,9307,75,1994,1,11,20,0,4.03,194.84,1939.8,2,2342.4,2,28.14,2,34.65,2
Kaiyo,9307,76,1994,1,12,3,0,3.89,195,1927.6,2,2284.7,2,28.39,2,34.52,2
Kaiyo,9307,77,1994,1,12,4,0,3.72,195,1935.9,2,2288,2,28.26,2,34.53,2
Kaiyo,9307,78,1994,1,12,5,0,3.56,195,1938.2,2,2289.7,2,28.1,2,34.59,2
Kaiyo,9307,79,1994,1,12,6,0,3.38,195.01,1969.6,2,2313.9,2,28.02,2,34.65,2
Kaiyo,9307,80,1994,1,12,7,0,3.22,195,1968.1,2,2309.9,2,27.98,2,34.78,2
Kaiyo,9307,81,1994,1,12,8,0,3.02,195,1962.6,2,2307.3,2,28,2,34.88,2
Kaiyo,9307,82,1994,1,12,9,0,2.83,194.99,1964,2,2310.6,2,27.98,2,34.92,2
Kaiyo,9307,83,1994,1,12,10,0,2.63,194.99,1961.9,2,2308.3,2,27.92,2,34.94,2
Kaiyo,9307,84,1994,1,12,11,0,2.43,194.99,1971.2,2,2384.3,2,27.92,2,34.94,2
Kaiyo,9307,85,1994,1,12,12,0,2.23,194.99,1975.1,2,2389.2,2,27.92,2,34.95,2
Kaiyo,9307,86,1994,1,12,13,0,2.02,195,1980.4,2,2313.1,2,27.35,2,34.96,2
Kaiyo,9307,87,1994,1,12,14,0,1.82,195,1981.5,2,2315.4,2,27.28,2,34.97,2
Kaiyo,9307,88,1994,1,12,15,0,1.61,195,1980.4,2,2311.9,2,27.18,2,34.96,2
Kaiyo,9307,89,1994,1,12,16,0,1.41,195.01,1989.7,2,2316.9,2,26.95,2,34.97,2
Kaiyo,9307,90,1994,1,12,17,0,1.2,195.01,1995.9,2,2311.6,2,26.57,2,34.99,2
Kaiyo,9307,91,1994,1,12,18,0,1,195,1997.5,2,2313.4,2,26.54,2,35,2
Kaiyo,9307,92,1994,1,12,19,0,0.8,195,2005.8,2,2318.8,2,26.52,2,35.02,2
Kaiyo,9307,93,1994,1,12,20,0,0.61,195.01,2004.5,2,2316.3,2,26.49,2,35.07,2
Kaiyo,9307,94,1994,1,12,21,0,0.42,195,2010.6,2,2325.6,2,26.63,2,35.09,2
Kaiyo,9307,95,1994,1,12,22,0,0.25,195,2013.3,2,2327.4,2,26.74,2,35.15,2
Kaiyo,9307,96,1994,1,12,23,0,0.09,195,2013.5,2,2330.1,2,26.88,2,35.18,2
Kaiyo,9307,97,1994,1,13,0,0,0,195,2014.6,2,2328.8,2,26.86,2,35.19,2
Kaiyo,9307,98,1994,1,13,10,0,-0.03,194.96,2013.6,2,2330.6,2,26.54,2,35.26,2
Kaiyo,9307,99,1994,1,13,11,0,0,195,2012.6,2,2328,2,26.51,2,35.27,2
Kaiyo,9307,100,1994,1,13,12,0,-0.01,194.99,2014.1,2,2326.2,2,26.5,2,35.26,2
Kaiyo,9307,101,1994,1,13,13,0,-0.02,194.98,2014.8,2,2326.3,2,26.48,2,35.26,2
Kaiyo,9307,102,1994,1,13,14,0,0.01,195,2014.4,2,2328.7,2,26.44,2,35.25,2
Kaiyo,9307,103,1994,1,13,15,0,0,195,2013.8,2,2325.2,2,26.47,2,35.25,2
Kaiyo,9307,104,1994,1,13,16,0,0,194.99,2015.2,2,2325.1,2,26.45,2,35.25,2
Kaiyo,9307,105,1994,1,13,17,0,0,195,2016.6,2,2328.6,2,26.45,2,35.25,2
Kaiyo,9307,106,1994,1,13,18,0,0,195,2016.8,2,2328,2,26.45,2,35.24,2
Kaiyo,9307,107,1994,1,14,20,0,-0.69,195,2008,2,2329.2,2,27.15,2,35.19,2
Kaiyo,9307,108,1994,1,14,21,0,-0.88,195,2007.1,2,2334.8,2,27.52,2,35.23,2
Kaiyo,9307,109,1994,1,14,22,0,-1.08,195,2002.9,2,2328.2,2,27.55,2,35.27,2
Kaiyo,9307,110,1994,1,14,23,0,-1.28,195,2002.3,2,2325,2,27.46,2,35.28,2
Kaiyo,9307,111,1994,1,15,0,0,-1.48,195,2002.5,2,2325.5,2,27.46,2,35.27,2
Kaiyo,9307,112,1994,1,15,1,0,-1.68,195.01,2003.1,2,2325.9,2,27.57,2,35.26,2
Kaiyo,9307,113,1994,1,15,2,0,-1.88,195,2003.1,2,2319,2,27.67,2,35.25,2
Kaiyo,9307,114,1994,1,15,3,0,-2.08,195,2003.6,2,2331.4,2,27.77,2,35.25,2
Kaiyo,9307,115,1994,1,15,4,0,-2.28,195,2003.7,2,2333.8,2,27.79,2,35.26,2
Kaiyo,9307,116,1994,1,15,5,0,-2.49,195,2002.4,2,2324.6,2,27.81,2,35.27,2
Kaiyo,9307,117,1994,1,15,6,0,-2.69,195,2000.7,2,2325.3,2,27.76,2,35.29,2
Kaiyo,9307,118,1994,1,15,7,0,-2.87,195,1998.1,2,2334.3,2,27.94,2,35.3,2
Kaiyo,9307,119,1994,1,15,8,0,-3,195,2000.9,2,2343.5,2,28.18,2,35.32,2
Kaiyo,9307,120,1994,1,15,9,0,-3,195,1999.6,2,2339.1,2,28.16,2,35.35,2
Kaiyo,9307,121,1994,1,15,10,0,-3,195,1997.6,2,2336.3,2,28.14,2,35.39,2
Kaiyo,9307,122,1994,1,15,11,0,-3.01,195,1999.6,2,2342.8,2,28.17,2,35.41,2
Kaiyo,9307,123,1994,1,15,12,0,-3.07,195.01,1999.4,2,2343.7,2,28.22,2,35.43,2
Kaiyo,9307,124,1994,1,15,13,0,-3.17,195,1995.2,2,2342.3,2,28.27,2,35.43,2
Kaiyo,9307,125,1994,1,15,14,0,-3.28,195,1997.7,2,2343.2,2,28.24,2,35.44,2
Kaiyo,9307,126,1994,1,15,15,0,-3.4,195,1998.6,2,2342.6,2,28.16,2,35.46,2
Kaiyo,9307,127,1994,1,15,16,0,-3.51,195,1997.2,2,2336.9,2,28,2,35.45,2
Kaiyo,9307,128,1994,1,15,17,0,-3.61,194.99,1999.7,2,2347.8,2,28.3,2,35.42,2
Kaiyo,9307,129,1994,1,15,18,0,-3.72,194.99,1996.6,2,2347.7,2,28.47,2,35.42,2
Kaiyo,9307,130,1994,1,15,19,0,-3.84,195,1994.4,2,2349.4,2,28.65,2,35.43,2
Kaiyo,9307,131,1994,1,15,20,0,-3.93,195,1995.1,2,2350.1,2,28.75,2,35.48,2
Kaiyo,9307,132,1994,1,16,3,0,-3.1,194.55,1990.7,2,2338.3,2,28.99,2,35.46,2
Kaiyo,9307,133,1994,1,16,4,0,-2.91,194.46,1994.3,2,2341.4,2,28.79,2,35.46,2
Kaiyo,9307,134,1994,1,16,5,0,-2.72,194.35,1996.1,2,2335.9,2,28.36,2,35.44,2
Kaiyo,9307,135,1994,1,16,6,0,-2.53,194.26,1994.8,2,2329.4,2,28.04,2,35.41,2
Kaiyo,9307,136,1994,1,16,7,0,-2.34,194.16,2002.4,2,2328.7,2,27.71,2,35.36,2
Kaiyo,9307,137,1994,1,16,8,0,-2.16,194.07,2001.7,2,2327.2,2,27.52,2,35.31,2
Kaiyo,9307,138,1994,1,16,9,0,-1.98,193.98,2004.4,2,2331.1,2,27.44,2,35.27,2
Kaiyo,9307,139,1994,1,16,10,0,-1.79,193.89,2000,2,2322.8,2,27.36,2,35.26,2
Kaiyo,9307,140,1994,1,16,11,0,-1.6,193.8,2004.2,2,2327.2,2,27.3,2,35.24,2
Kaiyo,9307,141,1994,1,16,12,0,-1.42,193.7,1999.9,2,2322.7,2,27.2,2,35.23,2
Kaiyo,9307,142,1994,1,16,13,0,-1.23,193.6,2001.5,2,2320.7,2,27.09,2,35.22,2
Kaiyo,9307,143,1994,1,16,14,0,-1.04,193.51,2001.9,2,2320.8,2,27.08,2,35.2,2
Kaiyo,9307,144,1994,1,16,15,0,-0.87,193.43,2003.2,2,2323.7,2,27.1,2,35.21,2
Kaiyo,9307,145,1994,1,16,16,0,-0.71,193.35,2005.4,2,2326,2,27.1,2,35.23,2
Kaiyo,9307,146,1994,1,16,17,0,-0.55,193.26,2009,2,2329.7,2,27.12,2,35.26,2
Kaiyo,9307,147,1994,1,16,18,0,-0.39,193.2,2010.8,2,2328.6,2,27.01,2,35.28,2
Kaiyo,9307,148,1994,1,16,19,0,-0.23,193.13,2013,2,2329.7,2,26.98,2,35.29,2
Kaiyo,9307,149,1994,1,16,20,0,-0.07,193.05,2014.4,2,2332.4,2,27.12,2,35.3,2
Kaiyo,9307,150,1994,1,17,6,0,0,191.29,2007.1,2,2326.9,2,27.24,2,35.27,2
Kaiyo,9307,151,1994,1,17,7,0,0,191.07,2004,2,2323.9,2,27.23,2,35.26,2
Kaiyo,9307,152,1994,1,17,8,0,0,190.85,2005.5,2,2325.8,2,27.17,2,35.26,2
Kaiyo,9307,153,1994,1,17,9,0,0,190.62,2004.5,2,2326,2,27.17,2,35.25,2
Kaiyo,9307,154,1994,1,17,10,0,0,190.4,2005.2,2,2327,2,27.18,2,35.24,2
Kaiyo,9307,155,1994,1,17,11,0,0,190.19,2003.9,2,2322.4,2,27.13,2,35.24,2
Kaiyo,9307,156,1994,1,17,12,0,0,190,2003.1,2,2320.4,2,27.08,2,35.24,2
Kaiyo,9307,157,1994,1,17,13,0,0,189.81,2004.9,2,2322.3,2,27.05,2,35.23,2
Kaiyo,9307,158,1994,1,17,14,0,0,189.62,2004.3,2,2319.7,2,26.96,2,35.23,2
Kaiyo,9307,159,1994,1,17,15,0,0,189.43,2002.7,2,2315.3,2,26.83,2,35.22,2
Kaiyo,9307,160,1994,1,17,16,0,0,189.24,2003.3,2,2316,2,26.81,2,35.21,2
Kaiyo,9307,161,1994,1,17,17,0,0,189.05,2004.4,2,2413.1,2,26.81,2,35.19,2
Kaiyo,9307,162,1994,1,17,18,0,0,188.85,2004.4,2,2413.1,2,26.81,2,35.17,2
Kaiyo,9307,163,1994,1,17,19,0,0,188.7,2003.3,2,2316.7,2,27.1,2,35.14,2
Kaiyo,9307,164,1994,1,18,4,0,0,187.18,2006.2,2,2323.2,2,27.37,2,35.12,2
Kaiyo,9307,165,1994,1,18,5,0,0,186.96,2007.7,2,2324.4,2,27.37,2,35.14,2
Kaiyo,9307,166,1994,1,18,6,0,0,186.74,2008.9,2,2327.8,2,27.39,2,35.17,2
Kaiyo,9307,167,1994,1,18,7,0,0,186.51,2009.2,2,2328.1,2,27.39,2,35.2,2
Kaiyo,9307,168,1994,1,18,8,0,0,186.3,2007.2,2,2331.3,2,27.42,2,35.23,2
Kaiyo,9307,169,1994,1,18,9,0,0,186.12,2008.9,2,2331.7,2,27.41,2,35.26,2
Kaiyo,9307,170,1994,1,18,10,0,0,185.94,2009.8,2,2330.5,2,27.44,2,35.28,2
Kaiyo,9307,171,1994,1,18,11,0,0,185.75,2008.3,2,2330.7,2,27.49,2,35.29,2
Kaiyo,9307,172,1994,1,18,12,0,-0.01,185.57,2007.2,2,2330.8,2,27.54,2,35.3,2
Kaiyo,9307,173,1994,1,18,13,0,0,185.38,2002.4,2,2327.6,2,27.53,2,35.31,2
Kaiyo,9307,174,1994,1,18,14,0,0,185.19,2003.3,2,2330.1,2,27.57,2,35.31,2
Kaiyo,9307,175,1994,1,18,15,0,0,185,2001.9,2,2329.3,2,27.58,2,35.3,2
Kaiyo,9307,176,1994,1,18,16,0,0,184.82,2000.5,2,2327.1,2,27.6,2,35.29,2
Kaiyo,9307,177,1994,1,18,17,0,0,184.65,2001.3,2,2327.3,2,27.59,2,35.28,2
Kaiyo,9307,178,1994,1,18,18,0,0,184.49,2000.3,2,2325.7,2,27.59,2,35.28,2
Kaiyo,9307,179,1994,1,18,19,0,0,184.33,2000.8,2,2325.3,2,27.73,2,35.27,2
Kaiyo,9307,180,1994,1,18,20,0,0,184.17,2003.9,2,2329.4,2,27.87,2,35.26,2
Kaiyo,9307,181,1994,1,18,21,0,0,184.04,2001.1,2,2327.7,2,27.97,2,35.26,2
Kaiyo,9307,182,1994,1,19,7,0,0,182.28,1994.3,2,2325.8,2,28.09,2,35.23,2
Kaiyo,9307,183,1994,1,19,8,0,0,182.06,1994.6,2,2328.1,2,28.17,2,35.23,2
Kaiyo,9307,184,1994,1,19,13,0,0,180.99,1994.5,2,2336.3,2,28.38,2,35.39,2
Kaiyo,9307,185,1994,1,19,15,0,0,180.55,1989.5,2,2327.6,2,28.33,2,35.4,2
Kaiyo,9307,186,1994,1,19,16,0,0,180.34,1988.6,2,2325.3,2,28.23,2,35.41,2
Kaiyo,9307,187,1994,1,19,17,0,0.02,180.13,1986.6,2,2324.4,2,28.23,2,35.37,2
Kaiyo,9307,188,1994,1,19,18,0,0.03,180.11,1986.1,2,2350.2,2,28.24,2,35.31,2
Kaiyo,9307,189,1994,1,19,19,0,0.03,180.11,1987.2,2,2321.2,2,28.24,2,35.27,2
Kaiyo,9307,190,1994,1,19,20,0,0.02,180.11,1988.2,2,2410.9,2,28.24,2,35.23,2
Kaiyo,9307,191,1994,1,20,6,0,0.01,178.76,1982.4,2,2325.4,2,28.76,2,35.22,2
Kaiyo,9307,192,1994,1,20,8,0,0.01,178.31,1984.8,2,2320.5,2,28.73,2,35.23,2
Kaiyo,9307,193,1994,1,20,9,0,0,178.09,1977.8,2,2407.6,2,28.73,2,35.27,2
Kaiyo,9307,194,1994,1,20,10,0,0,177.88,1984.3,2,2419.5,2,28.73,2,35.28,2
Kaiyo,9307,195,1994,1,20,11,0,0,177.66,1975.9,2,2326.1,2,28.91,2,35.31,2
Kaiyo,9307,196,1994,1,20,12,0,0,177.45,1977.7,2,2327.2,2,28.98,2,35.3,2
Kaiyo,9307,197,1994,1,20,13,0,0,177.24,1973.2,2,2323.7,2,29.04,2,35.25,2
Kaiyo,9307,198,1994,1,20,14,0,0,177.02,1970.4,2,2323.2,2,29.03,2,35.25,2
Kaiyo,9307,199,1994,1,20,15,0,0,176.81,1971,2,2324.6,2,29.01,2,35.23,2
Kaiyo,9307,200,1994,1,20,16,0,0,176.59,1967.2,2,2321.6,2,29.04,2,35.2,2
Kaiyo,9307,201,1994,1,20,17,0,0,176.37,1968.7,2,2323.5,2,29.04,2,35.21,2
Kaiyo,9307,202,1994,1,20,18,0,0,176.16,1965.2,2,2321,2,29.08,2,35.19,2
Kaiyo,9307,203,1994,1,20,19,0,0,175.94,1964.6,2,2393,2,29.08,2,35.17,2
Kaiyo,9307,204,1994,1,20,20,0,0,175.72,1962.4,2,2391.2,2,29.08,2,35.18,2
Kaiyo,9307,205,1994,1,20,21,0,0,175.49,1964,2,2331.9,2,29.87,2,35.18,2
Kaiyo,9307,206,1994,1,21,4,0,0.83,174.78,1966,2,2325.6,2,29.54,2,35.16,2
Kaiyo,9307,207,1994,1,21,5,0,1,174.67,1968,2,2326.5,2,29.48,2,35.18,2
Kaiyo,9307,208,1994,1,21,6,0,1.19,174.57,1956.1,2,2319.7,2,29.43,2,35.19,2
Kaiyo,9307,209,1994,1,21,7,0,1.37,174.46,1947.6,2,2313.3,2,29.37,2,35.17,2
Kaiyo,9307,210,1994,1,21,8,0,1.56,174.35,1951.7,2,2317.3,2,29.37,2,35.1,2
Kaiyo,9307,211,1994,1,21,9,0,1.74,174.24,1955.4,2,2320.3,2,29.33,2,35.08,2
Kaiyo,9307,212,1994,1,21,10,0,1.92,174.13,1955.1,2,2318.3,2,29.3,2,35.08,2
Kaiyo,9307,213,1994,1,21,11,0,2.1,174.02,1961.9,2,2320.5,2,29.18,2,35.1,2
Kaiyo,9307,214,1994,1,21,12,0,2.28,173.92,1970.2,2,2327.3,2,29.11,2,35.11,2
Kaiyo,9307,215,1994,1,21,16,0,2.97,173.5,1958.9,2,2315.9,2,29.06,2,35.12,2
Kaiyo,9307,216,1994,1,21,17,0,3.15,173.39,1956.5,2,2313.7,2,29.09,2,35.06,2
Kaiyo,9307,217,1994,1,21,18,0,3.32,173.29,1958.9,2,2316.1,2,29.09,2,35.04,2
Kaiyo,9307,218,1994,1,21,19,0,3.49,173.19,1959.6,2,2317.8,2,29.15,2,35.04,2
Kaiyo,9307,219,1994,1,21,20,0,3.66,173.08,1961.3,2,2321.4,2,29.23,2,35.04,2
Kaiyo,9307,220,1994,1,22,4,0,4.92,172.2,1920.7,2,2291.8,2,29.54,2,34.68,2
Kaiyo,9307,221,1994,1,22,8,0,5.56,171.77,1916.4,2,2284.4,2,29.12,2,34.64,2
Kaiyo,9307,222,1994,1,22,9,0,5.73,171.65,1895.1,2,2261.5,2,28.91,2,34.6,2
Kaiyo,9307,223,1994,1,22,10,0,5.89,171.53,1885.5,2,2253.3,2,28.78,2,34.39,2
Kaiyo,9307,224,1994,1,22,11,0,6.07,171.44,1883.1,2,2249.9,2,28.73,2,34.2,2
Kaiyo,9307,225,1994,1,22,12,0,6.25,171.35,1881.1,2,2246.3,2,28.66,2,34.09,2
Kaiyo,9307,226,1994,1,22,13,0,6.43,171.27,1881.5,2,2245.6,2,28.58,2,34.04,2
Kaiyo,9307,227,1994,1,22,14,0,6.6,171.19,1885.8,2,2250.5,2,28.63,2,34.01,2
Kaiyo,9307,228,1994,1,22,15,0,6.76,171.1,1886.8,2,2251.1,2,28.65,2,34.02,2
Kaiyo,9307,229,1994,1,22,16,0,6.93,171.01,1882.9,2,2243.4,2,28.39,2,34.03,2
Kaiyo,9307,230,1994,1,22,17,0,7.11,171,1876,2,2233.9,2,28.32,2,33.98,2
Kaiyo,9307,231,1994,1,22,18,0,7.27,171.08,1882,2,2242.6,2,28.31,2,33.94,2
Kaiyo,9307,232,1994,1,22,19,0,7.15,171.18,1881,2,2241.2,2,28.26,2,33.97,2
Kaiyo,9307,233,1994,1,25,15,0,5.52,170.76,1898.3,2,2267.4,2,28.51,2,34.04,2
Kaiyo,9307,234,1994,1,25,16,0,5.33,170.73,1912.8,2,2283.1,2,28.86,2,34.17,2
Kaiyo,9307,235,1994,1,25,17,0,5.14,170.71,1911,2,2282,2,28.93,2,34.25,2
Kaiyo,9307,236,1994,1,25,18,0,4.96,170.69,1912.5,2,2285,2,28.98,2,34.3,2
Kaiyo,9307,237,1994,1,25,19,0,4.78,170.67,1922.2,2,2328.6,2,28.98,2,34.41,2
Kaiyo,9307,238,1994,1,25,20,0,4.6,170.64,1927.4,2,2336.9,2,28.98,2,34.53,2
Kaiyo,9307,239,1994,1,25,21,0,4.42,170.6,1934.5,2,2306.2,2,29.22,2,34.62,2
Kaiyo,9307,240,1994,1,25,22,0,4.24,170.57,1941.7,2,2313.7,2,29.3,2,34.77,2
Kaiyo,9307,241,1994,1,25,23,0,4.05,170.54,1945.8,2,2316.7,2,29.46,2,34.8,2
Kaiyo,9307,242,1994,1,26,0,0,3.87,170.51,1951.3,2,2323.2,2,29.59,2,34.94,2
Kaiyo,9307,243,1994,1,26,1,0,3.68,170.49,1953.6,2,2320.4,2,29.54,2,34.6,2
Kaiyo,9307,244,1994,1,26,2,0,3.5,170.45,1946,2,2315.7,2,29.46,2,34.87,2
Kaiyo,9307,245,1994,1,26,3,0,3.32,170.44,1930.3,2,2307.3,2,29.67,2,35,2
Kaiyo,9307,246,1994,1,26,4,0,3.14,170.43,1930,2,2307.6,2,29.66,2,34.95,2
Kaiyo,9307,247,1994,1,26,5,0,2.96,170.41,1924.3,2,2300.4,2,29.59,2,34.87,2
Kaiyo,9307,248,1994,1,26,6,0,2.78,170.39,1912.9,2,2290.4,2,29.54,2,34.83,2
Kaiyo,9307,249,1994,1,26,7,0,2.59,170.37,1913.1,2,2292.3,2,29.54,2,34.77,2
Kaiyo,9307,250,1994,1,26,8,0,2.41,170.34,1912.7,2,2291.6,2,29.51,2,34.69,2
Kaiyo,9307,251,1994,1,26,9,0,2.23,170.31,1903.1,2,2280.6,2,29.47,2,34.64,2
Kaiyo,9307,252,1994,1,26,10,0,2.04,170.28,1903.8,2,2281.2,2,29.46,2,34.56,2
Kaiyo,9307,253,1994,1,26,16,0,0.95,170.12,1898.9,2,2275.7,2,29.59,2,34.39,2
Kaiyo,9307,254,1994,1,26,17,0,0.77,170.09,1899.7,2,2278,2,29.56,2,34.4,2
Kaiyo,9307,255,1994,1,26,18,0,0.59,170.06,1893.8,2,2270.8,2,29.55,2,34.4,2
Kaiyo,9307,256,1994,1,26,19,0,0.41,170.04,1888.5,2,2265.7,2,29.54,2,34.4,2
Kaiyo,9307,257,1994,1,26,20,0,0.23,170.02,1888.1,2,2266,2,29.64,2,34.34,2
Kaiyo,9307,258,1994,1,26,21,0,0.04,170,1887.4,2,2265.5,2,29.63,2,34.3,2
Kaiyo,9307,259,1994,1,26,22,0,0,169.99,1888.7,2,2265.2,2,29.66,2,34.27,2
Kaiyo,9307,260,1994,1,27,7,0,0.36,168.55,1895.5,2,2272.7,2,29.81,2,34.3,2
Kaiyo,9307,261,1994,1,27,8,0,0.32,168.33,1893.6,2,2270.7,2,29.76,2,34.33,2
Kaiyo,9307,262,1994,1,27,9,0,0.29,168.12,1893.3,2,2270.7,2,29.71,2,34.33,2
Kaiyo,9307,263,1994,1,27,10,0,0.26,167.9,1889,2,2266,2,29.71,2,34.34,2
Kaiyo,9307,264,1994,1,27,11,0,0.24,167.69,1889.7,2,2267.2,2,29.66,2,34.32,2
Kaiyo,9307,265,1994,1,27,12,0,0.21,167.48,1890.7,2,2268.1,2,29.71,2,34.31,2
Kaiyo,9307,266,1994,1,27,13,0,0.17,167.27,1886.5,2,2262.6,2,29.65,2,34.28,2
Kaiyo,9307,267,1994,1,27,14,0,0.13,167.05,1885.4,2,2260.2,2,29.56,2,34.26,2
Kaiyo,9307,268,1994,1,27,15,0,0.1,166.84,1888.7,2,2263.2,2,29.63,2,34.25,2
Kaiyo,9307,269,1994,1,27,16,0,0.09,166.64,1881.8,2,2254.6,2,29.62,2,34.23,2
Kaiyo,9307,270,1994,1,27,17,0,0.05,166.43,1884.7,2,2259.3,2,29.58,2,34.22,2
Kaiyo,9307,271,1994,1,27,18,0,0.03,166.21,1881.1,2,2254.7,2,29.59,2,34.2,2
Kaiyo,9307,272,1994,1,27,19,0,0.02,166,1883.4,2,2257.6,2,29.56,2,34.18,2
Kaiyo,9307,273,1994,1,27,20,0,0.01,165.78,1885,2,2259.1,2,29.63,2,34.16,2
Kaiyo,9307,274,1994,1,27,21,0,0.01,165.57,1880.6,2,2253.7,2,29.68,2,34.14,2
Kaiyo,9307,275,1994,1,27,22,0,0,165.36,1881.3,2,2253.7,2,29.76,2,34.1,2
Kaiyo,9307,276,1994,1,28,3,0,0,164.81,1881.9,2,2254.7,2,29.83,2,34.06,2
Kaiyo,9307,277,1994,1,28,4,0,0,164.6,1879,2,2250.5,2,29.88,2,34.05,2
Kaiyo,9307,278,1994,1,28,5,0,0,164.38,1879.6,2,2251.1,2,29.9,2,34.04,2
Kaiyo,9307,279,1994,1,28,6,0,0,164.16,1879.2,2,2250.6,2,29.79,2,34.04,2
Kaiyo,9307,280,1994,1,28,7,0,0.01,163.95,1878.7,2,2250,2,29.68,2,34.04,2
Kaiyo,9307,281,1994,1,28,8,0,0.01,163.73,1878,2,2249.3,2,29.65,2,34.03,2
Kaiyo,9307,282,1994,1,28,9,0,0,163.52,1877.3,2,2248.5,2,29.63,2,34.01,2
Kaiyo,9307,283,1994,1,28,10,0,0,163.3,1876.3,2,2247.1,2,29.55,2,34,2
Kaiyo,9307,284,1994,1,28,11,0,0,163.09,1878.5,2,2250.8,2,29.54,2,33.99,2
Kaiyo,9307,285,1994,1,28,12,0,0,162.87,1876.6,2,2248.5,2,29.49,2,33.98,2
Kaiyo,9307,286,1994,1,28,13,0,0,162.66,1874.4,2,2245.4,2,29.49,2,33.96,2
Kaiyo,9307,287,1994,1,28,14,0,0,162.44,1878.3,2,2249.3,2,29.49,2,33.94,2
Kaiyo,9307,288,1994,1,28,15,0,0,162.22,1876.9,2,2247.5,2,29.49,2,33.96,2
Kaiyo,9307,289,1994,1,28,16,0,0.01,162.01,1880.5,2,2252.7,2,29.46,2,33.97,2
Kaiyo,9307,290,1994,1,28,17,0,0,161.79,1879.9,2,2251.6,2,29.48,2,33.98,2
Kaiyo,9307,291,1994,1,28,18,0,-0.01,161.58,1878.2,2,2249.9,2,29.49,2,34,2
Kaiyo,9307,292,1994,1,28,19,0,-0.02,161.37,1877.7,2,2273.7,2,29.49,2,34.01,2
Kaiyo,9307,293,1994,1,28,20,0,-0.03,161.15,1880.2,2,2276.9,2,29.49,2,34.01,2
Kaiyo,9307,294,1994,1,28,21,0,-0.03,160.94,1881.6,2,2255.5,2,29.66,2,34.03,2
Kaiyo,9307,295,1994,1,28,22,0,-0.03,160.72,1885.3,2,2259.6,2,29.76,2,34.05,2
Kaiyo,9307,296,1994,1,29,4,0,0,160.04,1883.1,2,2255.3,2,29.95,2,34.13,2
Kaiyo,9307,297,1994,1,29,5,0,0,159.82,1880.3,2,2251.5,2,29.85,2,34.12,2
Kaiyo,9307,298,1994,1,29,6,0,0,159.6,1878.9,2,2249.8,2,29.91,2,34.08,2
Kaiyo,9307,299,1994,1,29,7,0,-0.01,159.38,1878.2,2,2248.8,2,29.86,2,34.06,2
Kaiyo,9307,300,1994,1,29,8,0,-0.01,159.16,1877.1,2,2250.3,2,29.93,2,34.02,2
Kaiyo,9307,301,1994,1,29,9,0,0,158.94,1875.4,2,2249.3,2,29.82,2,34,2
Kaiyo,9307,302,1994,1,29,10,0,0,158.72,1875.8,2,2248.1,2,29.89,2,33.98,2
Kaiyo,9307,303,1994,1,29,11,0,0,158.49,1869.7,2,2239.4,2,29.73,2,33.96,2
Kaiyo,9307,304,1994,1,29,12,0,0,158.27,1873.6,2,2245,2,29.91,2,33.93,2
Kaiyo,9307,305,1994,1,29,13,0,0,158.04,1875.6,2,2246.9,2,29.79,2,33.92,2
Kaiyo,9307,306,1994,1,29,14,0,0,157.82,1874.5,2,2247.3,2,29.77,2,33.95,2
Kaiyo,9307,307,1994,1,29,15,0,-0.01,157.6,1872.5,2,2246.6,2,29.69,2,33.96,2
Kaiyo,9307,308,1994,1,29,16,0,-0.01,157.39,1873.2,2,2247.7,2,29.75,2,33.95,2
Kaiyo,9307,309,1994,1,29,17,0,0,157.17,1871,2,2244.4,2,29.82,2,33.94,2